YO8RXT-3 Weather Reports


time (UTC)temp
F
wind
direction
speed
knots
gust
knots
rain 1hr
in
rain 24hr
in
rain mn
in
humidity
%
barometer
mb
20260505123502 79 120 5.2 0.0 0.00 0.00 0.00 23 1013.0
20260505120502 79 150 5.2 0.0 0.00 0.00 0.00 26 1013.0
20260505113502 77 5.2 0.0 0.00 0.00 0.00 24 1014.0
20260505110502 77 140 5.2 0.0 0.00 0.00 0.00 28 1014.0
20260505100502 75 4.3 0.0 0.00 0.00 0.00 29 1014.0
20260505093503 75 4.3 0.0 0.00 0.00 0.00 31 1015.0
20260505090503 73 170 2.6 0.0 0.00 0.00 0.00 36 1015.0
20260505083503 72 1.7 0.0 0.00 0.00 0.00 36 1015.0
20260505080502 70 1.7 0.0 0.00 0.00 0.00 35 1015.0
20260505073503 66 110 5.2 0.0 0.00 0.00 0.00 43 1015.0
20260505070503 64 110 4.3 0.0 0.00 0.00 0.00 46 1015.0
20260505063503 61 90 5.2 0.0 0.00 0.00 0.00 52 1015.0
20260505060503 59 90 5.2 0.0 0.00 0.00 0.00 51 1015.0
20260505053502 57 100 5.2 0.0 0.00 0.00 0.00 55 1015.0
20260505050503 55 90 4.3 0.0 0.00 0.00 0.00 55 1015.0
20260505040503 52 70 5.2 0.0 0.00 0.00 0.00 58 1015.0
20260505033502 52 90 4.3 0.0 0.00 0.00 0.00 54 1015.0
20260505030502 52 90 4.3 0.0 0.00 0.00 0.00 54 1015.0
20260505023503 54 80 4.3 0.0 0.00 0.00 0.00 51 1015.0
20260505020503 0 0.0 0.0 0.00 0.00 0.00
20260505013503 59 0.9 0.0 0.00 0.00 0.00 42 1014.0
20260505010503 59 0.9 0.0 0.00 0.00 0.00 42 1014.0
20260505003502 57 0.9 0.0 0.00 0.00 0.00 44 1015.0
20260505000503 59 150 1.7 0.0 0.00 0.00 0.00 42 1015.0
20260504233502 59 1.7 0.0 0.00 0.00 0.00 42 1015.0
20260504230502 59 200 1.7 0.0 0.00 0.00 0.00 45 1015.0
20260504223503 59 200 1.7 0.0 0.00 0.00 0.00 45 1015.0
20260504220504 61 210 2.6 0.0 0.00 0.00 0.00 42 1015.0
20260504213503 61 190 5.2 0.0 0.00 0.00 0.00 42 1015.0
20260504210503 63 1.7 0.0 0.00 0.00 0.00 39 1015.0
20260504203504 63 1.7 0.0 0.00 0.00 0.00 39 1015.0
20260504200502 64 120 2.6 0.0 0.00 0.00 0.00 37 1015.0
20260504193502 64 0 0.0 0.0 0.00 0.00 0.00 40 1015.0
20260504190502 64 0 0.0 0.0 0.00 0.00 0.00 40 1015.0
20260504183502 70 120 4.3 0.0 0.00 0.00 0.00 33 1014.0
20260504180502 70 120 4.3 0.0 0.00 0.00 0.00 33 1014.0
20260504173502 72 1.7 0.0 0.00 0.00 0.00 31 1014.0
20260504170502 72 100 4.3 0.0 0.00 0.00 0.00 33 1014.0
20260504150503 75 60 8.7 0.0 0.00 0.00 0.00 27 1014.0
20260504140505 77 40 12.2 0.0 0.00 0.00 0.00 26 1014.0